AAL9920 KLAS-KPQI

Flight info

Callsign AAL9920
Flight time 4h 49m
Altitude 35000
Route GIDGT3 VERKN EKR J84 SNY/N0450F370 J114 ONL J148 MCW J16 BAE J36 DABJU SLLAP Q848 MENKO Q824 YUL ATENE
Aircraft A319/M-SDE3FGHIRWY/LB1

Departure

Time 2026-05-07 19:16
Airport Harry Reid International Airport (KLAS)

Arrival

Time 2026-05-08 00:05
Airport Presque Isle International Airport (KPQI)
Time Latitude Longitude Altitude Speed Heading
2026-05-07 18:48 36.08025 -115.14061 2100 ft 0 kts 95°
2026-05-07 19:05 36.08025 -115.14064 2100 ft 1 kts 95°
2026-05-07 19:05 36.08026 -115.14079 2100 ft 3 kts 96°
2026-05-07 19:05 36.08028 -115.14101 2102 ft 3 kts 96°
2026-05-07 19:06 36.08032 -115.14123 2104 ft 3 kts 113°
2026-05-07 19:06 36.08054 -115.14156 2103 ft 3 kts 165°
2026-05-07 19:06 36.08065 -115.14158 2101 ft 0 kts 175°
2026-05-07 19:11 36.08063 -115.14158 2101 ft 1 kts 175°
2026-05-07 19:11 36.08027 -115.14158 2103 ft 7 kts 181°
2026-05-07 19:12 36.07966 -115.14162 2104 ft 10 kts 181°
2026-05-07 19:12 36.07881 -115.14161 2105 ft 14 kts 180°
2026-05-07 19:12 36.07827 -115.14061 2103 ft 19 kts 90°
2026-05-07 19:12 36.07827 -115.13877 2100 ft 23 kts 90°
2026-05-07 19:13 36.07826 -115.13654 2090 ft 28 kts 89°
2026-05-07 19:13 36.07827 -115.13395 2083 ft 32 kts 90°
2026-05-07 19:13 36.07827 -115.13093 2064 ft 38 kts 90°
2026-05-07 19:13 36.07828 -115.12743 2049 ft 44 kts 90°
2026-05-07 19:14 36.07827 -115.12459 2041 ft 18 kts 91°
2026-05-07 19:14 36.07826 -115.12305 2037 ft 20 kts 92°
2026-05-07 19:14 36.07757 -115.12164 2032 ft 14 kts 129°
2026-05-07 19:14 36.07677 -115.12123 2033 ft 13 kts 182°
2026-05-07 19:15 36.07642 -115.12177 2030 ft 8 kts 271°
2026-05-07 19:15 36.07643 -115.12236 2032 ft 6 kts 271°
2026-05-07 19:15 36.07643 -115.12413 2036 ft 46 kts 269°
2026-05-07 19:15 36.07641 -115.13025 2062 ft 98 kts 270°
2026-05-07 19:16 36.07641 -115.14114 2110 ft 150 kts 270°
2026-05-07 19:16 36.07641 -115.15597 2227 ft 187 kts 270°
2026-05-07 19:16 36.07639 -115.17171 2947 ft 182 kts 271°
2026-05-07 19:16 36.07639 -115.18743 3581 ft 183 kts 270°
2026-05-07 19:17 36.07639 -115.20348 4019 ft 191 kts 270°
2026-05-07 19:17 36.07637 -115.22076 4171 ft 212 kts 269°
2026-05-07 19:17 36.07636 -115.23982 4336 ft 229 kts 270°
2026-05-07 19:17 36.07726 -115.25974 4738 ft 237 kts 284°
2026-05-07 19:18 36.08519 -115.27748 5333 ft 239 kts 315°
2026-05-07 19:18 36.09965 -115.28849 5718 ft 254 kts 345°
2026-05-07 19:18 36.11702 -115.29331 6368 ft 259 kts 348°
2026-05-07 19:18 36.13500 -115.29556 7067 ft 262 kts
2026-05-07 19:19 36.15230 -115.28883 7834 ft 265 kts 29°
2026-05-07 19:19 36.16656 -115.27319 8245 ft 285 kts 55°
2026-05-07 19:19 36.17570 -115.25113 8892 ft 292 kts 68°
2026-05-07 19:19 36.18289 -115.22734 9646 ft 295 kts 68°
2026-05-07 19:20 36.19022 -115.20346 10308 ft 302 kts 69°
2026-05-07 19:20 36.19536 -115.17713 10484 ft 327 kts 81°
2026-05-07 19:20 36.19648 -115.14813 10617 ft 350 kts 89°
2026-05-07 19:20 36.19635 -115.11778 10980 ft 362 kts 89°
2026-05-07 19:21 36.19627 -115.08649 11531 ft 365 kts 89°
2026-05-07 19:21 36.19623 -115.05497 12157 ft 368 kts 88°
2026-05-07 19:21 36.19621 -115.02326 12796 ft 370 kts 88°
2026-05-07 19:21 36.19620 -114.99127 13440 ft 372 kts 88°
2026-05-07 19:22 36.19620 -114.95916 14038 ft 375 kts 88°
2026-05-07 19:22 36.19620 -114.92673 14587 ft 377 kts 88°
2026-05-07 19:22 36.19618 -114.89414 15126 ft 380 kts 88°
2026-05-07 19:22 36.19614 -114.86131 15659 ft 383 kts 88°
2026-05-07 19:23 36.19610 -114.82827 16205 ft 385 kts 88°
2026-05-07 19:23 36.19603 -114.79496 16754 ft 388 kts 88°
2026-05-07 19:23 36.19595 -114.76150 17304 ft 391 kts 88°
2026-05-07 19:23 36.19586 -114.72773 17845 ft 393 kts 88°
2026-05-07 19:24 36.19577 -114.69375 18375 ft 396 kts 88°
2026-05-07 19:24 36.19567 -114.65947 18864 ft 399 kts 88°
2026-05-07 19:24 36.19560 -114.62501 19352 ft 402 kts 88°
2026-05-07 19:24 36.19554 -114.59029 19821 ft 405 kts 88°
2026-05-07 19:25 36.19546 -114.55530 20287 ft 407 kts 88°
2026-05-07 19:25 36.19540 -114.52012 20757 ft 410 kts 87°
2026-05-07 19:25 36.19534 -114.48472 21198 ft 413 kts 87°
2026-05-07 19:25 36.19526 -114.44912 21628 ft 415 kts 88°
2026-05-07 19:26 36.19514 -114.41323 22052 ft 418 kts 88°
2026-05-07 19:26 36.19498 -114.37711 22461 ft 421 kts 88°
2026-05-07 19:26 36.19478 -114.34076 22869 ft 423 kts 88°
2026-05-07 19:26 36.19457 -114.30428 23269 ft 426 kts 88°
2026-05-07 19:27 36.19542 -114.26766 23640 ft 426 kts 81°
2026-05-07 19:27 36.20086 -114.23170 23973 ft 425 kts 71°
2026-05-07 19:27 36.21102 -114.19746 24312 ft 423 kts 62°
2026-05-07 19:27 36.22396 -114.16470 24647 ft 425 kts 62°
2026-05-07 19:28 36.23695 -114.13174 24978 ft 427 kts 62°
2026-05-07 19:28 36.24989 -114.09861 25318 ft 428 kts 62°
2026-05-07 19:28 36.26285 -114.06527 25667 ft 430 kts 62°
2026-05-07 19:28 36.27584 -114.03177 26005 ft 432 kts 62°
2026-05-07 19:29 36.28868 -113.99866 26318 ft 433 kts 62°
2026-05-07 19:29 36.30179 -113.96489 26647 ft 435 kts 62°
2026-05-07 19:29 36.31493 -113.93110 26955 ft 436 kts 62°
2026-05-07 19:29 36.32817 -113.89714 27256 ft 438 kts 62°
2026-05-07 19:30 36.34145 -113.86302 27557 ft 440 kts 62°
2026-05-07 19:30 36.35473 -113.82876 27861 ft 441 kts 62°
2026-05-07 19:30 36.36800 -113.79439 28151 ft 443 kts 62°
2026-05-07 19:30 36.38129 -113.75986 28429 ft 445 kts 62°
2026-05-07 19:31 36.39463 -113.72519 28702 ft 446 kts 62°
2026-05-07 19:31 36.40802 -113.69033 28977 ft 448 kts 62°
2026-05-07 19:31 36.42149 -113.65528 29288 ft 449 kts 62°
2026-05-07 19:31 36.43492 -113.62038 29696 ft 448 kts 62°
2026-05-07 19:32 36.44835 -113.58556 30104 ft 446 kts 62°
2026-05-07 19:32 36.46182 -113.55093 30452 ft 445 kts 61°
2026-05-07 19:32 36.47529 -113.51629 30788 ft 444 kts 61°
2026-05-07 19:32 36.48870 -113.48176 31117 ft 443 kts 61°
2026-05-07 19:33 36.50204 -113.44728 31450 ft 442 kts 62°
2026-05-07 19:33 36.51530 -113.41287 31785 ft 441 kts 62°
2026-05-07 19:33 36.52855 -113.37848 32121 ft 441 kts 62°
2026-05-07 19:33 36.54173 -113.34416 32468 ft 440 kts 62°
2026-05-07 19:34 36.55490 -113.30983 32782 ft 439 kts 62°
2026-05-07 19:34 36.56804 -113.27561 33131 ft 438 kts 62°
2026-05-07 19:34 36.58097 -113.24190 33467 ft 437 kts 62°
2026-05-07 19:34 36.59402 -113.20785 33805 ft 436 kts 62°
2026-05-07 19:35 36.60708 -113.17380 34122 ft 435 kts 62°
2026-05-07 19:35 36.62009 -113.13980 34413 ft 435 kts 62°
2026-05-07 19:35 36.63304 -113.10587 34739 ft 434 kts 62°
2026-05-07 19:35 36.64594 -113.07206 35002 ft 433 kts 62°
2026-05-07 19:36 36.67178 -113.00434 35086 ft 432 kts 62°
2026-05-07 19:36 36.69752 -112.93673 35099 ft 432 kts 62°
2026-05-07 19:37 36.72318 -112.86908 35103 ft 432 kts 62°
2026-05-07 19:37 36.74886 -112.80130 35095 ft 432 kts 62°
2026-05-07 19:38 36.77450 -112.73348 35081 ft 433 kts 62°
2026-05-07 19:38 36.79575 -112.67699 35067 ft 433 kts 62°
2026-05-07 19:39 36.82128 -112.60898 35042 ft 433 kts 62°
2026-05-07 19:39 36.84680 -112.54085 35032 ft 433 kts 62°
2026-05-07 19:40 36.87414 -112.47402 35039 ft 430 kts 53°
2026-05-07 19:40 36.91481 -112.42021 35033 ft 425 kts 35°
2026-05-07 19:41 36.96499 -112.38157 35026 ft 424 kts 29°
2026-05-07 19:41 37.01600 -112.34410 35026 ft 425 kts 29°
2026-05-07 19:42 37.06706 -112.30651 35029 ft 426 kts 29°
2026-05-07 19:42 37.11813 -112.26886 35032 ft 426 kts 29°
2026-05-07 19:43 37.16933 -112.23118 35033 ft 427 kts 29°
2026-05-07 19:43 37.22044 -112.19341 35033 ft 427 kts 29°
2026-05-07 19:44 37.27169 -112.15557 35036 ft 427 kts 29°
2026-05-07 19:44 37.32282 -112.11771 35036 ft 427 kts 29°
2026-05-07 19:45 37.37355 -112.07861 35051 ft 428 kts 35°
2026-05-07 19:45 37.41586 -112.02566 35078 ft 432 kts 47°
2026-05-07 19:46 37.45514 -111.96839 35092 ft 432 kts 46°
2026-05-07 19:46 37.49432 -111.91149 35102 ft 433 kts 46°
2026-05-07 19:47 37.53399 -111.85374 35100 ft 434 kts 47°
2026-05-07 19:47 37.57310 -111.79647 35085 ft 434 kts 47°
2026-05-07 19:48 37.61244 -111.73883 35063 ft 434 kts 46°
2026-05-07 19:48 37.65191 -111.68108 35044 ft 434 kts 46°
2026-05-07 19:49 37.69129 -111.62332 35042 ft 434 kts 47°
2026-05-07 19:49 37.73067 -111.56536 35045 ft 434 kts 46°
2026-05-07 19:50 37.77001 -111.50741 35047 ft 435 kts 47°
2026-05-07 19:50 37.80938 -111.44925 35047 ft 435 kts 46°
2026-05-07 19:51 37.84866 -111.39112 35043 ft 435 kts 47°
2026-05-07 19:51 37.88801 -111.33281 35041 ft 435 kts 47°
2026-05-07 19:52 37.92728 -111.27445 35039 ft 435 kts 47°
2026-05-07 19:52 37.96652 -111.21601 35039 ft 436 kts 46°
2026-05-07 19:53 38.00582 -111.15755 35035 ft 436 kts 46°
2026-05-07 19:53 38.04510 -111.09896 35033 ft 436 kts 46°
2026-05-07 19:54 38.08424 -111.04032 35031 ft 436 kts 46°
2026-05-07 19:54 38.12339 -110.98163 35032 ft 435 kts 46°
2026-05-07 19:55 38.16255 -110.92286 35054 ft 436 kts 46°
2026-05-07 19:55 38.20178 -110.86405 35082 ft 436 kts 46°
2026-05-07 19:56 38.24061 -110.80563 35106 ft 436 kts 46°
2026-05-07 19:56 38.27963 -110.74668 35127 ft 436 kts 46°
2026-05-07 19:57 38.31864 -110.68752 35150 ft 436 kts 46°
2026-05-07 19:57 38.35772 -110.62836 35162 ft 437 kts 46°
2026-05-07 19:58 38.39687 -110.56908 35156 ft 437 kts 46°
2026-05-07 19:58 38.43589 -110.50977 35127 ft 437 kts 46°
2026-05-07 19:59 38.47491 -110.45034 35111 ft 437 kts 46°
2026-05-07 19:59 38.51384 -110.39088 35092 ft 437 kts 46°
2026-05-07 20:00 38.55284 -110.33120 35069 ft 437 kts 46°
2026-05-07 20:00 38.59183 -110.27157 35056 ft 437 kts 45°
2026-05-07 20:01 38.63079 -110.21182 35058 ft 437 kts 45°
2026-05-07 20:01 38.66972 -110.15201 35070 ft 438 kts 45°
2026-05-07 20:02 38.70869 -110.09208 35084 ft 438 kts 45°
2026-05-07 20:02 38.74752 -110.03207 35102 ft 438 kts 45°
2026-05-07 20:03 38.78639 -109.97187 35112 ft 438 kts 45°
2026-05-07 20:03 38.82524 -109.91171 35118 ft 438 kts 45°
2026-05-07 20:04 38.86383 -109.85190 35121 ft 438 kts 45°
2026-05-07 20:04 38.90266 -109.79167 35126 ft 438 kts 45°
2026-05-07 20:05 38.94140 -109.73127 35121 ft 438 kts 45°
2026-05-07 20:05 38.98017 -109.67075 35110 ft 438 kts 45°
2026-05-07 20:06 39.01888 -109.61018 35105 ft 438 kts 45°
2026-05-07 20:06 39.05746 -109.54967 35093 ft 438 kts 45°
2026-05-07 20:07 39.09611 -109.48902 35087 ft 438 kts 45°
2026-05-07 20:07 39.13472 -109.42836 35088 ft 438 kts 45°
2026-05-07 20:08 39.17329 -109.36763 35079 ft 438 kts 45°
2026-05-07 20:08 39.21182 -109.30678 35081 ft 438 kts 45°
2026-05-07 20:09 39.25035 -109.24589 35088 ft 438 kts 45°
2026-05-07 20:10 39.30809 -109.15434 35087 ft 439 kts 45°
2026-05-07 20:10 39.34660 -109.09305 35084 ft 439 kts 45°
2026-05-07 20:11 39.38513 -109.03171 35090 ft 440 kts 45°
2026-05-07 20:11 39.42368 -108.97031 35091 ft 440 kts 45°
2026-05-07 20:12 39.46215 -108.90874 35091 ft 440 kts 45°
2026-05-07 20:12 39.50065 -108.84706 35089 ft 440 kts 45°
2026-05-07 20:13 39.53912 -108.78533 35088 ft 441 kts 45°
2026-05-07 20:13 39.57739 -108.72380 35093 ft 442 kts 45°
2026-05-07 20:14 39.61597 -108.66176 35094 ft 442 kts 45°
2026-05-07 20:14 39.65443 -108.59960 35095 ft 442 kts 45°
2026-05-07 20:15 39.69299 -108.53718 35097 ft 442 kts 44°
2026-05-07 20:15 39.73151 -108.47480 35091 ft 443 kts 45°
2026-05-07 20:16 39.77004 -108.41221 35087 ft 443 kts 44°
2026-05-07 20:16 39.80853 -108.34960 35085 ft 444 kts 45°
2026-05-07 20:17 39.84699 -108.28682 35084 ft 444 kts 45°
2026-05-07 20:17 39.88552 -108.22386 35103 ft 444 kts 45°
2026-05-07 20:18 39.92401 -108.16086 35125 ft 444 kts 45°
2026-05-07 20:18 39.96247 -108.09787 35147 ft 444 kts 44°
2026-05-07 20:19 40.00092 -108.03486 35160 ft 444 kts 44°
2026-05-07 20:19 40.03929 -107.97167 35170 ft 444 kts 45°
2026-05-07 20:20 40.07174 -107.90207 35230 ft 460 kts 62°
2026-05-07 20:20 40.08192 -107.86213 35472 ft 465 kts 66°
2026-05-07 20:20 40.09122 -107.82237 35748 ft 464 kts 66°
2026-05-07 20:20 40.10061 -107.78215 36020 ft 463 kts 66°
2026-05-07 20:21 40.10996 -107.74196 36278 ft 462 kts 66°
2026-05-07 20:21 40.11928 -107.70180 36560 ft 461 kts 66°
2026-05-07 20:21 40.12855 -107.66172 36806 ft 460 kts 66°
2026-05-07 20:21 40.13777 -107.62176 37055 ft 460 kts 66°
2026-05-07 20:22 40.14697 -107.58168 37134 ft 460 kts 66°
2026-05-07 20:22 40.16528 -107.50158 37122 ft 460 kts 66°
2026-05-07 20:23 40.18360 -107.42130 37131 ft 461 kts 66°
2026-05-07 20:23 40.20197 -107.34086 37132 ft 462 kts 66°
2026-05-07 20:24 40.21723 -107.27393 37140 ft 463 kts 67°
2026-05-07 20:24 40.23861 -107.17950 37147 ft 463 kts 67°
2026-05-07 20:25 40.25372 -107.11228 37147 ft 463 kts 67°
2026-05-07 20:25 40.27186 -107.03138 37141 ft 463 kts 67°
2026-05-07 20:26 40.28995 -106.95044 37131 ft 463 kts 67°
2026-05-07 20:26 40.30800 -106.86937 37137 ft 464 kts 67°
2026-05-07 20:27 40.32601 -106.78809 37137 ft 465 kts 67°
2026-05-07 20:27 40.34404 -106.70672 37121 ft 465 kts 67°
2026-05-07 20:28 40.36192 -106.62574 37113 ft 465 kts 67°
2026-05-07 20:28 40.37994 -106.54364 37106 ft 466 kts 67°
2026-05-07 20:29 40.39783 -106.46186 37093 ft 467 kts 67°
2026-05-07 20:29 40.41561 -106.38044 37079 ft 468 kts 68°
2026-05-07 20:30 40.43346 -106.29839 37080 ft 468 kts 68°
2026-05-07 20:30 40.45126 -106.21611 37078 ft 469 kts 68°
2026-05-07 20:31 40.46900 -106.13361 37080 ft 470 kts 68°
2026-05-07 20:31 40.48671 -106.05085 37083 ft 471 kts 68°
2026-05-07 20:32 40.50444 -105.96804 37079 ft 471 kts 68°
2026-05-07 20:32 40.52210 -105.88512 37072 ft 472 kts 68°
2026-05-07 20:33 40.53976 -105.80189 37064 ft 472 kts 68°
2026-05-07 20:33 40.55740 -105.71871 37057 ft 473 kts 68°
2026-05-07 20:34 40.57496 -105.63536 37045 ft 473 kts 68°
2026-05-07 20:34 40.59236 -105.55202 37017 ft 473 kts 68°
2026-05-07 20:35 40.60980 -105.46830 37004 ft 474 kts 69°
2026-05-07 20:35 40.62723 -105.38449 36990 ft 475 kts 68°
2026-05-07 20:36 40.64449 -105.30118 36979 ft 475 kts 69°
2026-05-07 20:36 40.66178 -105.21719 36978 ft 476 kts 69°
2026-05-07 20:37 40.67906 -105.13287 36986 ft 477 kts 69°
2026-05-07 20:37 40.69643 -105.04782 36978 ft 478 kts 69°
2026-05-07 20:38 40.71354 -104.96380 36975 ft 479 kts 69°
2026-05-07 20:38 40.73074 -104.87902 36969 ft 479 kts 69°
2026-05-07 20:39 40.74791 -104.79397 36966 ft 480 kts 69°
2026-05-07 20:39 40.76504 -104.70885 36980 ft 480 kts 69°
2026-05-07 20:40 40.78218 -104.62365 36994 ft 481 kts 69°
2026-05-07 20:40 40.79917 -104.53826 37004 ft 481 kts 69°
2026-05-07 20:41 40.81607 -104.45273 37012 ft 481 kts 69°
2026-05-07 20:41 40.83299 -104.36719 37013 ft 482 kts 69°
2026-05-07 20:42 40.84987 -104.28166 37016 ft 482 kts 69°
2026-05-07 20:42 40.86666 -104.19597 37015 ft 482 kts 69°
2026-05-07 20:43 40.88342 -104.11009 37015 ft 482 kts 70°
2026-05-07 20:43 40.90003 -104.02417 37009 ft 483 kts 70°
2026-05-07 20:44 40.91655 -103.93881 37007 ft 483 kts 70°
2026-05-07 20:44 40.93321 -103.85272 37001 ft 483 kts 70°
2026-05-07 20:45 40.94971 -103.76656 37003 ft 483 kts 70°
2026-05-07 20:45 40.96619 -103.68035 36996 ft 484 kts 70°
2026-05-07 20:46 40.98259 -103.59400 36993 ft 484 kts 70°
2026-05-07 20:46 40.99897 -103.50766 36987 ft 484 kts 70°
2026-05-07 20:47 41.01530 -103.42123 36975 ft 484 kts 71°
2026-05-07 20:47 41.03149 -103.33472 36962 ft 484 kts 71°
2026-05-07 20:48 41.04761 -103.24810 36973 ft 484 kts 71°
2026-05-07 20:48 41.06376 -103.16142 36984 ft 484 kts 71°
2026-05-07 20:49 41.07985 -103.07479 36993 ft 484 kts 71°
2026-05-07 20:49 41.09577 -102.98801 36994 ft 485 kts 71°
2026-05-07 20:50 41.11237 -102.90200 36993 ft 484 kts 70°
2026-05-07 20:50 41.13023 -102.81553 36976 ft 483 kts 70°
2026-05-07 20:51 41.14778 -102.73007 36949 ft 484 kts 70°
2026-05-07 20:51 41.16511 -102.64375 36927 ft 484 kts 71°
2026-05-07 20:52 41.18216 -102.55743 36903 ft 484 kts 71°
2026-05-07 20:52 41.19921 -102.47085 36889 ft 484 kts 71°
2026-05-07 20:53 41.21626 -102.38440 36895 ft 484 kts 71°
2026-05-07 20:53 41.23325 -102.29781 36898 ft 485 kts 71°
2026-05-07 20:54 41.25023 -102.21103 36905 ft 485 kts 71°
2026-05-07 20:54 41.26719 -102.12416 36908 ft 486 kts 72°
2026-05-07 20:55 41.28406 -102.03724 36913 ft 486 kts 72°
2026-05-07 20:55 41.30086 -101.95012 36915 ft 487 kts 72°
2026-05-07 20:56 41.31752 -101.86356 36918 ft 487 kts 72°
2026-05-07 20:56 41.33423 -101.77614 36917 ft 487 kts 72°
2026-05-07 20:57 41.35081 -101.68864 36914 ft 488 kts 72°
2026-05-07 20:57 41.36751 -101.60055 36908 ft 488 kts 72°
2026-05-07 20:58 41.38397 -101.51338 36903 ft 488 kts 72°
2026-05-07 20:58 41.40041 -101.42557 36901 ft 489 kts 73°
2026-05-07 20:59 41.41682 -101.33770 36902 ft 489 kts 73°
2026-05-07 20:59 41.43322 -101.24970 36898 ft 490 kts 73°
2026-05-07 21:00 41.44959 -101.16155 36904 ft 490 kts 73°
2026-05-07 21:00 41.46589 -101.07337 36905 ft 491 kts 73°
2026-05-07 21:01 41.48212 -100.98490 36911 ft 491 kts 73°
2026-05-07 21:01 41.49828 -100.89646 36912 ft 491 kts 73°
2026-05-07 21:02 41.51437 -100.80784 36915 ft 492 kts 73°
2026-05-07 21:02 41.53548 -100.72171 36914 ft 485 kts 59°
2026-05-07 21:03 41.57016 -100.64548 36913 ft 480 kts 52°
2026-05-07 21:03 41.60598 -100.57015 36912 ft 480 kts 53°
2026-05-07 21:04 41.64154 -100.49455 36905 ft 480 kts 53°
2026-05-07 21:04 41.67719 -100.41888 36921 ft 480 kts 53°
2026-05-07 21:05 41.71259 -100.34387 36926 ft 480 kts 53°
2026-05-07 21:05 41.74815 -100.26827 36924 ft 480 kts 53°
2026-05-07 21:06 41.78359 -100.19260 36922 ft 480 kts 53°
2026-05-07 21:06 41.81895 -100.11675 36915 ft 479 kts 53°
2026-05-07 21:07 41.85424 -100.04094 36915 ft 480 kts 53°
2026-05-07 21:07 41.88953 -99.96510 36916 ft 479 kts 53°
2026-05-07 21:08 41.92479 -99.88912 36917 ft 479 kts 53°
2026-05-07 21:08 41.96002 -99.81306 36914 ft 479 kts 53°
2026-05-07 21:09 41.99509 -99.73685 36914 ft 479 kts 54°
2026-05-07 21:09 42.03009 -99.66070 36915 ft 479 kts 53°
2026-05-07 21:10 42.06516 -99.58449 36916 ft 479 kts 54°
2026-05-07 21:10 42.10017 -99.50813 36919 ft 479 kts 54°
2026-05-07 21:11 42.13505 -99.43171 36925 ft 479 kts 54°
2026-05-07 21:11 42.18733 -99.31687 36929 ft 478 kts 54°
2026-05-07 21:12 42.22203 -99.24043 36931 ft 478 kts 54°
2026-05-07 21:12 42.25669 -99.16397 36924 ft 478 kts 54°
2026-05-07 21:13 42.29140 -99.08728 36926 ft 478 kts 54°
2026-05-07 21:13 42.32008 -99.02355 36929 ft 478 kts 54°
2026-05-07 21:14 42.36031 -98.93373 36928 ft 478 kts 54°
2026-05-07 21:14 42.39457 -98.85729 36931 ft 478 kts 54°
2026-05-07 21:15 42.42344 -98.79277 36934 ft 478 kts 54°
2026-05-07 21:15 42.45731 -98.71524 36937 ft 480 kts 59°
2026-05-07 21:16 42.47870 -98.62963 36933 ft 488 kts 77°
2026-05-07 21:16 42.49124 -98.53942 36932 ft 488 kts 77°
2026-05-07 21:17 42.50387 -98.44909 36928 ft 488 kts 77°
2026-05-07 21:17 42.51645 -98.35884 36926 ft 488 kts 77°
2026-05-07 21:18 42.52894 -98.26825 36929 ft 488 kts 77°
2026-05-07 21:18 42.54132 -98.17773 36930 ft 489 kts 77°
2026-05-07 21:19 42.55367 -98.08708 36938 ft 489 kts 77°
2026-05-07 21:19 42.56590 -97.99631 36947 ft 489 kts 77°
2026-05-07 21:20 42.57808 -97.90555 36950 ft 489 kts 77°
2026-05-07 21:20 42.59027 -97.81460 36954 ft 489 kts 77°
2026-05-07 21:21 42.60229 -97.72366 36953 ft 490 kts 77°
2026-05-07 21:21 42.61424 -97.63274 36952 ft 490 kts 77°
2026-05-07 21:22 42.62615 -97.54166 36947 ft 490 kts 77°
2026-05-07 21:22 42.63802 -97.45048 36939 ft 490 kts 77°
2026-05-07 21:23 42.64986 -97.35918 36937 ft 491 kts 77°
2026-05-07 21:23 42.66162 -97.26787 36936 ft 491 kts 77°
2026-05-07 21:24 42.67327 -97.17629 36924 ft 492 kts 77°
2026-05-07 21:24 42.68494 -97.08477 36916 ft 492 kts 77°
2026-05-07 21:25 42.69646 -96.99364 36908 ft 492 kts 77°
2026-05-07 21:25 42.70794 -96.90137 36909 ft 493 kts 77°
2026-05-07 21:26 42.71921 -96.80995 36910 ft 493 kts 77°
2026-05-07 21:26 42.73058 -96.71789 36925 ft 494 kts 77°
2026-05-07 21:27 42.74188 -96.62579 36930 ft 494 kts 77°
2026-05-07 21:27 42.75315 -96.53357 36922 ft 494 kts 77°
2026-05-07 21:28 42.76428 -96.44131 36916 ft 495 kts 77°
2026-05-07 21:28 42.77534 -96.34883 36908 ft 495 kts 77°
2026-05-07 21:29 42.78640 -96.25627 36910 ft 495 kts 77°
2026-05-07 21:29 42.79736 -96.16377 36902 ft 496 kts 77°
2026-05-07 21:30 42.80828 -96.07100 36906 ft 496 kts 77°
2026-05-07 21:30 42.81905 -95.97833 36911 ft 496 kts 77°
2026-05-07 21:31 42.82972 -95.88531 36919 ft 497 kts 77°
2026-05-07 21:31 42.84037 -95.79240 36922 ft 497 kts 77°
2026-05-07 21:32 42.85107 -95.69927 36916 ft 497 kts 77°
2026-05-07 21:32 42.86161 -95.60604 36912 ft 498 kts 77°
2026-05-07 21:33 42.87209 -95.51275 36915 ft 498 kts 77°
2026-05-07 21:33 42.88250 -95.41942 36914 ft 499 kts 77°
2026-05-07 21:34 42.89282 -95.32588 36918 ft 499 kts 77°
2026-05-07 21:34 42.90308 -95.23233 36925 ft 499 kts 77°
2026-05-07 21:35 42.91332 -95.13858 36928 ft 500 kts 77°
2026-05-07 21:35 42.92342 -95.04536 36928 ft 500 kts 77°
2026-05-07 21:36 42.93350 -94.95145 36929 ft 501 kts 77°
2026-05-07 21:36 42.94349 -94.85740 36938 ft 501 kts 77°
2026-05-07 21:37 42.95343 -94.76324 36943 ft 501 kts 78°
2026-05-07 21:37 42.96335 -94.66900 36940 ft 502 kts 78°
2026-05-07 21:38 42.97317 -94.57459 36933 ft 502 kts 78°
2026-05-07 21:38 42.98288 -94.48010 36924 ft 502 kts 78°
2026-05-07 21:39 42.99251 -94.38579 36913 ft 502 kts 78°
2026-05-07 21:39 43.00210 -94.29108 36910 ft 503 kts 78°
2026-05-07 21:40 43.01160 -94.19639 36913 ft 503 kts 78°
2026-05-07 21:40 43.02107 -94.10169 36921 ft 504 kts 78°
2026-05-07 21:41 43.03044 -94.00673 36928 ft 504 kts 78°
2026-05-07 21:41 43.03972 -93.91179 36934 ft 504 kts 78°
2026-05-07 21:42 43.04884 -93.81739 36937 ft 504 kts 78°
2026-05-07 21:42 43.05803 -93.72166 36930 ft 504 kts 78°
2026-05-07 21:43 43.06713 -93.62662 36925 ft 505 kts 78°
2026-05-07 21:43 43.07609 -93.53189 36916 ft 505 kts 78°
2026-05-07 21:44 43.08496 -93.43669 36911 ft 505 kts 78°
2026-05-07 21:44 43.09367 -93.34133 36916 ft 506 kts 79°
2026-05-07 21:45 43.09703 -93.24483 36914 ft 508 kts 84°
2026-05-07 21:45 43.09954 -93.14808 36914 ft 509 kts 84°
2026-05-07 21:46 43.10194 -93.05122 36915 ft 509 kts 84°
2026-05-07 21:46 43.10415 -92.95430 36916 ft 510 kts 84°
2026-05-07 21:47 43.10632 -92.85729 36913 ft 510 kts 84°
2026-05-07 21:47 43.10845 -92.76022 36911 ft 511 kts 84°
2026-05-07 21:48 43.11050 -92.66296 36912 ft 512 kts 85°
2026-05-07 21:48 43.11242 -92.56557 36917 ft 512 kts 85°
2026-05-07 21:49 43.11428 -92.46816 36921 ft 513 kts 85°
2026-05-07 21:49 43.11613 -92.37059 36924 ft 513 kts 85°
2026-05-07 21:50 43.11786 -92.27292 36933 ft 513 kts 85°
2026-05-07 21:50 43.11949 -92.17537 36934 ft 513 kts 85°
2026-05-07 21:51 43.12103 -92.07770 36931 ft 513 kts 85°
2026-05-07 21:51 43.12252 -91.97992 36921 ft 514 kts 85°
2026-05-07 21:52 43.12391 -91.88215 36913 ft 514 kts 85°
2026-05-07 21:52 43.12524 -91.78434 36910 ft 514 kts 85°
2026-05-07 21:53 43.12648 -91.68632 36916 ft 515 kts 85°
2026-05-07 21:53 43.12762 -91.58832 36917 ft 515 kts 86°
2026-05-07 21:54 43.12862 -91.49025 36923 ft 515 kts 86°
2026-05-07 21:54 43.12964 -91.39276 36925 ft 516 kts 86°
2026-05-07 21:55 43.13052 -91.29392 36919 ft 516 kts 86°
2026-05-07 21:55 43.13128 -91.19634 36915 ft 516 kts 86°
2026-05-07 21:56 43.13199 -91.09808 36913 ft 516 kts 86°
2026-05-07 21:56 43.13266 -90.99921 36919 ft 517 kts 86°
2026-05-07 21:57 43.13319 -90.90068 36929 ft 517 kts 86°
2026-05-07 21:57 43.13368 -90.80224 36925 ft 517 kts 86°
2026-05-07 21:58 43.13410 -90.70441 36925 ft 517 kts 86°
2026-05-07 21:58 43.13443 -90.60589 36926 ft 518 kts 87°
2026-05-07 21:59 43.13467 -90.50738 36926 ft 518 kts 87°
2026-05-07 21:59 43.13477 -90.40874 36911 ft 518 kts 87°
2026-05-07 22:00 43.13481 -90.31010 36908 ft 518 kts 87°
2026-05-07 22:00 43.13479 -90.21139 36907 ft 519 kts 87°
2026-05-07 22:01 43.13469 -90.11264 36905 ft 519 kts 88°
2026-05-07 22:01 43.13440 -90.01384 36908 ft 519 kts 88°
2026-05-07 22:02 43.13408 -89.93098 36910 ft 519 kts 88°
2026-05-07 22:02 43.13377 -89.83285 36911 ft 519 kts 88°
2026-05-07 22:03 43.13337 -89.73395 36905 ft 520 kts 88°
2026-05-07 22:03 43.13286 -89.63506 36898 ft 520 kts 88°
2026-05-07 22:04 43.13229 -89.53598 36893 ft 520 kts 88°
2026-05-07 22:04 43.13153 -89.43688 36887 ft 520 kts 88°
2026-05-07 22:05 43.13066 -89.33784 36893 ft 520 kts 88°
2026-05-07 22:05 43.12976 -89.23883 36891 ft 520 kts 89°
2026-05-07 22:06 43.12886 -89.13982 36897 ft 520 kts 89°
2026-05-07 22:06 43.12784 -89.04070 36903 ft 521 kts 89°
2026-05-07 22:07 43.12665 -88.94169 36911 ft 521 kts 89°
2026-05-07 22:07 43.12542 -88.84254 36909 ft 521 kts 89°
2026-05-07 22:08 43.12414 -88.74344 36920 ft 521 kts 89°
2026-05-07 22:08 43.12273 -88.64398 36921 ft 521 kts 90°
2026-05-07 22:09 43.12124 -88.54478 36927 ft 522 kts 90°
2026-05-07 22:09 43.11965 -88.44567 36919 ft 522 kts 90°
2026-05-07 22:10 43.11795 -88.34698 36927 ft 522 kts 90°
2026-05-07 22:10 43.11866 -88.24766 36919 ft 520 kts 84°
2026-05-07 22:11 43.12363 -88.14887 36943 ft 521 kts 84°
2026-05-07 22:11 43.12836 -88.05003 36945 ft 520 kts 84°
2026-05-07 22:12 43.13292 -87.95124 36949 ft 520 kts 84°
2026-05-07 22:12 43.13746 -87.85243 36949 ft 520 kts 85°
2026-05-07 22:13 43.14193 -87.75356 36968 ft 520 kts 85°
2026-05-07 22:13 43.14631 -87.65471 36957 ft 520 kts 85°
2026-05-07 22:14 43.15057 -87.55579 36972 ft 520 kts 85°
2026-05-07 22:14 43.15476 -87.45678 36966 ft 521 kts 85°
2026-05-07 22:15 43.15891 -87.35782 36967 ft 521 kts 85°
2026-05-07 22:15 43.16299 -87.25865 36963 ft 522 kts 85°
2026-05-07 22:16 43.16691 -87.15939 36960 ft 522 kts 85°
2026-05-07 22:16 43.17081 -87.06004 36954 ft 522 kts 85°
2026-05-07 22:17 43.17466 -86.96066 36952 ft 523 kts 86°
2026-05-07 22:17 43.17839 -86.86101 36956 ft 523 kts 86°
2026-05-07 22:18 43.18373 -86.71156 36960 ft 524 kts 86°
2026-05-07 22:19 43.18726 -86.61176 36963 ft 524 kts 86°
2026-05-07 22:19 43.19072 -86.51261 36957 ft 525 kts 86°
2026-05-07 22:20 43.19407 -86.41261 36955 ft 525 kts 86°
2026-05-07 22:20 43.19724 -86.31267 36953 ft 525 kts 86°
2026-05-07 22:21 43.20985 -86.21461 36953 ft 522 kts 72°
2026-05-07 22:21 43.22874 -86.11849 36956 ft 522 kts 72°
2026-05-07 22:22 43.24735 -86.02210 36964 ft 523 kts 73°
2026-05-07 22:22 43.26581 -85.92559 36957 ft 523 kts 73°
2026-05-07 22:23 43.28426 -85.82896 36959 ft 523 kts 73°
2026-05-07 22:23 43.30271 -85.73225 36959 ft 524 kts 73°
2026-05-07 22:24 43.32103 -85.63543 36965 ft 524 kts 73°
2026-05-07 22:24 43.33926 -85.53852 36964 ft 524 kts 73°
2026-05-07 22:25 43.35746 -85.44148 36967 ft 525 kts 73°
2026-05-07 22:25 43.37559 -85.34417 36963 ft 525 kts 74°
2026-05-07 22:26 43.39361 -85.24690 36965 ft 526 kts 74°
2026-05-07 22:26 43.41162 -85.14941 36964 ft 526 kts 74°
2026-05-07 22:27 43.42954 -85.05189 36962 ft 526 kts 74°
2026-05-07 22:27 43.44732 -84.95427 36956 ft 526 kts 75°
2026-05-07 22:28 43.46208 -84.85562 36954 ft 527 kts 79°
2026-05-07 22:28 43.47258 -84.75586 36948 ft 527 kts 82°
2026-05-07 22:29 43.48239 -84.65591 36950 ft 527 kts 81°
2026-05-07 22:29 43.49334 -84.55604 36947 ft 527 kts 80°
2026-05-07 22:30 43.50489 -84.45635 36946 ft 527 kts 80°
2026-05-07 22:30 43.51619 -84.35741 36933 ft 527 kts 81°
2026-05-07 22:31 43.52718 -84.25766 36941 ft 527 kts 81°
2026-05-07 22:31 43.53800 -84.15766 36936 ft 527 kts 81°
2026-05-07 22:32 43.54887 -84.05771 36934 ft 527 kts 81°
2026-05-07 22:32 43.55957 -83.95772 36936 ft 527 kts 81°
2026-05-07 22:33 43.57024 -83.85764 36932 ft 528 kts 81°
2026-05-07 22:33 43.58085 -83.75752 36930 ft 528 kts 82°
2026-05-07 22:34 43.59137 -83.65731 36932 ft 528 kts 82°
2026-05-07 22:34 43.60180 -83.55711 36924 ft 528 kts 82°
2026-05-07 22:35 43.61214 -83.45672 36934 ft 528 kts 82°
2026-05-07 22:35 43.62230 -83.35633 36922 ft 529 kts 82°
2026-05-07 22:36 43.63250 -83.25564 36929 ft 529 kts 82°
2026-05-07 22:36 43.64263 -83.15512 36927 ft 529 kts 82°
2026-05-07 22:37 43.65252 -83.05516 36924 ft 529 kts 82°
2026-05-07 22:37 43.66238 -82.95438 36937 ft 529 kts 82°
2026-05-07 22:38 43.67218 -82.85365 36935 ft 530 kts 83°
2026-05-07 22:38 43.68134 -82.75266 36932 ft 530 kts 84°
2026-05-07 22:39 43.68843 -82.65136 36942 ft 530 kts 86°
2026-05-07 22:39 43.69487 -82.54993 36943 ft 530 kts 85°
2026-05-07 22:40 43.70179 -82.44840 36949 ft 530 kts 85°
2026-05-07 22:40 43.70901 -82.34700 36943 ft 531 kts 85°
2026-05-07 22:41 43.71618 -82.24541 36944 ft 531 kts 85°
2026-05-07 22:41 43.72755 -82.14470 36936 ft 531 kts 73°
2026-05-07 22:42 43.75485 -82.05025 36936 ft 529 kts 63°
2026-05-07 22:42 43.78574 -81.95778 36936 ft 530 kts 63°
2026-05-07 22:43 43.81651 -81.86503 36943 ft 530 kts 63°
2026-05-07 22:43 43.84730 -81.77222 36945 ft 530 kts 63°
2026-05-07 22:44 43.87797 -81.67926 36954 ft 531 kts 63°
2026-05-07 22:44 43.90843 -81.58676 36955 ft 531 kts 63°
2026-05-07 22:45 43.93927 -81.49289 36956 ft 531 kts 63°
2026-05-07 22:45 43.96960 -81.40022 36953 ft 531 kts 64°
2026-05-07 22:46 44.00004 -81.30673 36952 ft 531 kts 64°
2026-05-07 22:46 44.03062 -81.21255 36947 ft 532 kts 64°
2026-05-07 22:47 44.06081 -81.11944 36947 ft 531 kts 64°
2026-05-07 22:47 44.08616 -81.04089 36944 ft 531 kts 64°
2026-05-07 22:48 44.11630 -80.94705 36948 ft 531 kts 64°
2026-05-07 22:48 44.15125 -80.83787 36942 ft 531 kts 64°
2026-05-07 22:49 44.17629 -80.75975 36946 ft 531 kts 64°
2026-05-07 22:49 44.20638 -80.66520 36939 ft 531 kts 64°
2026-05-07 22:50 44.23615 -80.57096 36945 ft 530 kts 64°
2026-05-07 22:50 44.26570 -80.47749 36941 ft 530 kts 64°
2026-05-07 22:51 44.29556 -80.38268 36948 ft 530 kts 65°
2026-05-07 22:51 44.32491 -80.28892 36940 ft 530 kts 65°
2026-05-07 22:52 44.35443 -80.19455 36944 ft 530 kts 65°
2026-05-07 22:52 44.38387 -80.10012 36942 ft 530 kts 65°
2026-05-07 22:53 44.41311 -80.00563 36945 ft 530 kts 65°
2026-05-07 22:53 44.44253 -79.91036 36934 ft 530 kts 65°
2026-05-07 22:54 44.47154 -79.81619 36937 ft 530 kts 65°
2026-05-07 22:54 44.50067 -79.72136 36929 ft 530 kts 65°
2026-05-07 22:55 44.52961 -79.62645 36928 ft 530 kts 66°
2026-05-07 22:55 44.55856 -79.53131 36926 ft 530 kts 66°
2026-05-07 22:56 44.58746 -79.43614 36929 ft 531 kts 66°
2026-05-07 22:56 44.61630 -79.34069 36929 ft 531 kts 66°
2026-05-07 22:57 44.64508 -79.24523 36923 ft 531 kts 66°
2026-05-07 22:57 44.67373 -79.14967 36915 ft 531 kts 66°
2026-05-07 22:58 44.70221 -79.05409 36924 ft 531 kts 66°
2026-05-07 22:58 44.72588 -78.97457 36929 ft 531 kts 66°
2026-05-07 22:59 44.75918 -78.86260 36923 ft 531 kts 66°
2026-05-07 22:59 44.78720 -78.76635 36914 ft 531 kts 68°
2026-05-07 23:00 44.81258 -78.66883 36916 ft 531 kts 70°
2026-05-07 23:00 44.83660 -78.57117 36909 ft 531 kts 71°
2026-05-07 23:01 44.86116 -78.47316 36902 ft 531 kts 70°
2026-05-07 23:01 44.88629 -78.37516 36898 ft 531 kts 70°
2026-05-07 23:02 44.91135 -78.27718 36902 ft 531 kts 70°
2026-05-07 23:02 44.93611 -78.17907 36896 ft 531 kts 70°
2026-05-07 23:03 44.96073 -78.08090 36899 ft 531 kts 70°
2026-05-07 23:03 44.98531 -77.98268 36900 ft 531 kts 71°
2026-05-07 23:04 45.00977 -77.88430 36899 ft 530 kts 71°
2026-05-07 23:04 45.03404 -77.78596 36907 ft 530 kts 71°
2026-05-07 23:05 45.05832 -77.68765 36896 ft 529 kts 71°
2026-05-07 23:05 45.08256 -77.58950 36891 ft 529 kts 71°
2026-05-07 23:06 45.10668 -77.49112 36896 ft 528 kts 71°
2026-05-07 23:06 45.13060 -77.39282 36905 ft 528 kts 71°
2026-05-07 23:07 45.15431 -77.29507 36898 ft 528 kts 71°
2026-05-07 23:07 45.17813 -77.19670 36908 ft 528 kts 71°
2026-05-07 23:08 45.20180 -77.09825 36899 ft 527 kts 71°
2026-05-07 23:08 45.22534 -76.99960 36903 ft 527 kts 72°
2026-05-07 23:09 45.24881 -76.90124 36896 ft 527 kts 71°
2026-05-07 23:09 45.25281 -76.88453 36899 ft 527 kts 71°
2026-05-07 23:10 45.29572 -76.70354 36893 ft 526 kts 72°
2026-05-07 23:10 45.31886 -76.60486 36895 ft 526 kts 72°
2026-05-07 23:11 45.34184 -76.50694 36886 ft 526 kts 72°
2026-05-07 23:11 45.36504 -76.40768 36893 ft 525 kts 72°
2026-05-07 23:12 45.38776 -76.30964 36885 ft 525 kts 72°
2026-05-07 23:12 45.40651 -76.20965 36884 ft 523 kts 83°
2026-05-07 23:13 45.41789 -76.10749 36872 ft 523 kts 83°
2026-05-07 23:13 45.42950 -76.00533 36869 ft 523 kts 83°
2026-05-07 23:14 45.44099 -75.90315 36862 ft 523 kts 83°
2026-05-07 23:14 45.45173 -75.80083 36857 ft 522 kts 84°
2026-05-07 23:15 45.46151 -75.69839 36859 ft 522 kts 84°
2026-05-07 23:15 45.47116 -75.59589 36863 ft 522 kts 84°
2026-05-07 23:16 45.48093 -75.49322 36856 ft 522 kts 84°
2026-05-07 23:16 45.49077 -75.39085 36864 ft 522 kts 84°
2026-05-07 23:17 45.50051 -75.28838 36855 ft 522 kts 84°
2026-05-07 23:17 45.51004 -75.18587 36860 ft 522 kts 84°
2026-05-07 23:18 45.51946 -75.08318 36850 ft 522 kts 84°
2026-05-07 23:18 45.52883 -74.98059 36860 ft 521 kts 84°
2026-05-07 23:19 45.53803 -74.87816 36858 ft 521 kts 85°
2026-05-07 23:19 45.54714 -74.77555 36858 ft 521 kts 85°
2026-05-07 23:20 45.55626 -74.67314 36855 ft 521 kts 85°
2026-05-07 23:20 45.56530 -74.57059 36859 ft 521 kts 85°
2026-05-07 23:21 45.57416 -74.46800 36859 ft 520 kts 85°
2026-05-07 23:21 45.58288 -74.36555 36860 ft 520 kts 85°
2026-05-07 23:22 45.59149 -74.26375 36852 ft 520 kts 85°
2026-05-07 23:22 45.60013 -74.16088 37129 ft 517 kts 85°
2026-05-07 23:22 45.60433 -74.11066 36904 ft 514 kts 85°
2026-05-07 23:23 45.60852 -74.06000 36813 ft 511 kts 85°
2026-05-07 23:23 45.61801 -73.95959 36811 ft 513 kts 78°
2026-05-07 23:24 45.63595 -73.86152 36818 ft 515 kts 76°
2026-05-07 23:24 45.65433 -73.76248 36816 ft 515 kts 76°
2026-05-07 23:25 45.67259 -73.66340 36824 ft 516 kts 76°
2026-05-07 23:25 45.69064 -73.56422 36825 ft 516 kts 77°
2026-05-07 23:26 45.70860 -73.46474 36826 ft 516 kts 77°
2026-05-07 23:26 45.72649 -73.36522 36830 ft 516 kts 77°
2026-05-07 23:27 45.75323 -73.21587 36831 ft 517 kts 77°
2026-05-07 23:27 45.77101 -73.11603 36827 ft 517 kts 77°
2026-05-07 23:28 45.78865 -73.01601 36820 ft 517 kts 77°
2026-05-07 23:28 45.80615 -72.91607 36821 ft 518 kts 77°
2026-05-07 23:29 45.82365 -72.81604 36817 ft 518 kts 77°
2026-05-07 23:29 45.84112 -72.71590 36815 ft 518 kts 77°
2026-05-07 23:30 45.85846 -72.61549 36814 ft 518 kts 78°
2026-05-07 23:30 45.87567 -72.51505 36821 ft 518 kts 78°
2026-05-07 23:31 45.89279 -72.41460 36820 ft 518 kts 78°
2026-05-07 23:31 45.90974 -72.31458 36810 ft 519 kts 78°
2026-05-07 23:32 45.92673 -72.21399 36812 ft 519 kts 78°
2026-05-07 23:32 45.94368 -72.11331 36810 ft 519 kts 78°
2026-05-07 23:33 45.96049 -72.01241 36811 ft 519 kts 78°
2026-05-07 23:33 45.97438 -71.92841 36806 ft 519 kts 78°
2026-05-07 23:34 45.99393 -71.81035 36810 ft 519 kts 78°
2026-05-07 23:34 46.01049 -71.70923 36810 ft 520 kts 79°
2026-05-07 23:35 46.02416 -71.62510 36809 ft 520 kts 79°
2026-05-07 23:35 46.04057 -71.52381 36808 ft 520 kts 79°
2026-05-07 23:36 46.05692 -71.42251 36805 ft 520 kts 79°
2026-05-07 23:36 46.07320 -71.32097 36803 ft 520 kts 79°
2026-05-07 23:37 46.08947 -71.21937 36794 ft 521 kts 79°
2026-05-07 23:37 46.10555 -71.11772 36791 ft 521 kts 79°
2026-05-07 23:38 46.12149 -71.01577 36784 ft 521 kts 80°
2026-05-07 23:38 46.13741 -70.91391 36779 ft 522 kts 80°
2026-05-07 23:39 46.15336 -70.81182 36776 ft 522 kts 80°
2026-05-07 23:39 46.16911 -70.70959 36770 ft 522 kts 80°
2026-05-07 23:40 46.18475 -70.60734 36507 ft 518 kts 80°
2026-05-07 23:40 46.19245 -70.55666 36207 ft 516 kts 81°
2026-05-07 23:40 46.19996 -70.50698 35918 ft 514 kts 81°
2026-05-07 23:41 46.20756 -70.45665 35626 ft 512 kts 81°
2026-05-07 23:41 46.21517 -70.40645 35349 ft 510 kts 81°
2026-05-07 23:41 46.22274 -70.35648 35057 ft 509 kts 81°
2026-05-07 23:41 46.23023 -70.30677 34773 ft 506 kts 81°
2026-05-07 23:42 46.23792 -70.25713 34493 ft 506 kts 78°
2026-05-07 23:42 46.24740 -70.20824 34258 ft 506 kts 76°
2026-05-07 23:42 46.25755 -70.15954 34031 ft 505 kts 75°
2026-05-07 23:42 46.26812 -70.11119 33808 ft 504 kts 75°
2026-05-07 23:43 46.27884 -70.06318 33540 ft 503 kts 75°
2026-05-07 23:43 46.28956 -70.01495 32975 ft 503 kts 75°
2026-05-07 23:43 46.30011 -69.96675 32377 ft 503 kts 75°
2026-05-07 23:43 46.31046 -69.91843 31693 ft 505 kts 75°
2026-05-07 23:44 46.32070 -69.86977 31023 ft 506 kts 76°
2026-05-07 23:44 46.33089 -69.82086 30375 ft 508 kts 76°
2026-05-07 23:44 46.34107 -69.77195 29718 ft 508 kts 76°
2026-05-07 23:44 46.35119 -69.72363 28951 ft 508 kts 75°
2026-05-07 23:45 46.36161 -69.67407 28180 ft 507 kts 75°
2026-05-07 23:45 46.37171 -69.62599 27457 ft 506 kts 75°
2026-05-07 23:45 46.38188 -69.57734 26741 ft 504 kts 75°
2026-05-07 23:45 46.39193 -69.52896 26040 ft 501 kts 75°
2026-05-07 23:46 46.40191 -69.48080 25360 ft 498 kts 75°
2026-05-07 23:46 46.41177 -69.43313 24670 ft 487 kts 75°
2026-05-07 23:46 46.42138 -69.38675 24029 ft 474 kts 75°
2026-05-07 23:46 46.43072 -69.34163 23399 ft 462 kts 75°
2026-05-07 23:47 46.43981 -69.29745 22646 ft 452 kts 75°
2026-05-07 23:47 46.44868 -69.25426 21830 ft 445 kts 75°
2026-05-07 23:47 46.45742 -69.21149 21023 ft 438 kts 75°
2026-05-07 23:47 46.46600 -69.16950 20245 ft 431 kts 75°
2026-05-07 23:48 46.47446 -69.12806 19479 ft 424 kts 75°
2026-05-07 23:48 46.48274 -69.08735 18733 ft 417 kts 75°
2026-05-07 23:48 46.49085 -69.04742 18005 ft 409 kts 75°
2026-05-07 23:48 46.49883 -69.00809 17175 ft 402 kts 75°
2026-05-07 23:49 46.50661 -68.96960 16369 ft 394 kts 75°
2026-05-07 23:49 46.51424 -68.93175 15581 ft 387 kts 74°
2026-05-07 23:49 46.52167 -68.89484 14820 ft 380 kts 74°
2026-05-07 23:49 46.52904 -68.85821 14063 ft 372 kts 74°
2026-05-07 23:50 46.53621 -68.82242 13297 ft 365 kts 75°
2026-05-07 23:50 46.54008 -68.78654 12607 ft 354 kts 88°
2026-05-07 23:50 46.54141 -68.75177 12310 ft 335 kts 87°
2026-05-07 23:50 46.54283 -68.71881 12014 ft 320 kts 87°
2026-05-07 23:51 46.54421 -68.68691 11726 ft 315 kts 87°
2026-05-07 23:51 46.54549 -68.65662 11454 ft 313 kts 87°
2026-05-07 23:51 46.54678 -68.62538 11176 ft 311 kts 87°
2026-05-07 23:51 46.54806 -68.59385 10891 ft 309 kts 87°
2026-05-07 23:52 46.54930 -68.56327 10615 ft 307 kts 87°
2026-05-07 23:52 46.55052 -68.53242 10341 ft 305 kts 87°
2026-05-07 23:52 46.55170 -68.50170 10104 ft 303 kts 87°
2026-05-07 23:52 46.55287 -68.47112 10044 ft 303 kts 87°
2026-05-07 23:53 46.55403 -68.44080 9962 ft 297 kts 88°
2026-05-07 23:53 46.55515 -68.41130 9793 ft 290 kts 88°
2026-05-07 23:53 46.55623 -68.38269 9654 ft 276 kts 88°
2026-05-07 23:53 46.55726 -68.35560 9503 ft 261 kts 88°
2026-05-07 23:54 46.55825 -68.32961 9153 ft 255 kts 88°
2026-05-07 23:54 46.55921 -68.30406 8706 ft 252 kts 88°
2026-05-07 23:54 46.56015 -68.27869 8247 ft 251 kts 88°
2026-05-07 23:54 46.56107 -68.25346 7783 ft 250 kts 88°
2026-05-07 23:55 46.56198 -68.22829 7327 ft 248 kts 87°
2026-05-07 23:55 46.56291 -68.20327 6882 ft 248 kts 87°
2026-05-07 23:55 46.56383 -68.17837 6442 ft 246 kts 87°
2026-05-07 23:55 46.56470 -68.15357 5980 ft 246 kts 87°
2026-05-07 23:56 46.56552 -68.13013 5532 ft 244 kts 86°
2026-05-07 23:56 46.56637 -68.10580 5210 ft 235 kts 86°
2026-05-07 23:56 46.56717 -68.08293 5061 ft 219 kts 86°
2026-05-07 23:56 46.56793 -68.06132 4809 ft 209 kts 86°
2026-05-07 23:57 46.56869 -68.04035 4354 ft 209 kts 86°
2026-05-07 23:57 46.57154 -68.01986 3845 ft 208 kts 67°
2026-05-07 23:57 46.57456 -67.99901 3306 ft 216 kts 96°
2026-05-07 23:57 46.56815 -67.98022 3062 ft 205 kts 135°
2026-05-07 23:58 46.55702 -67.96835 2785 ft 196 kts 160°
2026-05-07 23:58 46.54403 -67.96447 2714 ft 188 kts 187°
2026-05-07 23:58 46.53172 -67.96921 2714 ft 181 kts 214°
2026-05-07 23:58 46.52266 -67.98125 2725 ft 175 kts 240°
2026-05-07 23:59 46.51852 -67.99737 2727 ft 170 kts 263°
2026-05-07 23:59 46.51736 -68.01441 2726 ft 170 kts 268°
2026-05-07 23:59 46.51659 -68.03152 2720 ft 170 kts 268°
2026-05-07 23:59 46.51589 -68.04828 2718 ft 159 kts 268°
2026-05-08 00:00 46.51665 -68.06378 2716 ft 152 kts 287°
2026-05-08 00:00 46.52198 -68.07685 2722 ft 152 kts 309°
2026-05-08 00:00 46.53047 -68.08600 2719 ft 156 kts 330°
2026-05-08 00:00 46.54113 -68.08964 2720 ft 161 kts 353°
2026-05-08 00:01 46.55229 -68.08636 2712 ft 169 kts 18°
2026-05-08 00:01 46.56182 -68.07587 2715 ft 178 kts 46°
2026-05-08 00:01 46.56720 -68.05958 2710 ft 182 kts 76°
2026-05-08 00:01 46.56862 -68.04123 2725 ft 183 kts 84°
2026-05-08 00:02 46.57217 -68.02381 2729 ft 180 kts 52°
2026-05-08 00:02 46.58168 -68.01308 2554 ft 171 kts 14°
2026-05-08 00:02 46.59269 -68.01280 2347 ft 149 kts 341°
2026-05-08 00:02 46.60214 -68.01630 2151 ft 133 kts 340°
2026-05-08 00:03 46.61087 -68.01952 1974 ft 127 kts 340°
2026-05-08 00:03 46.61928 -68.02264 1805 ft 125 kts 340°
2026-05-08 00:03 46.62772 -68.02577 1618 ft 125 kts 340°
2026-05-08 00:03 46.63632 -68.02895 1429 ft 126 kts 341°
2026-05-08 00:04 46.64473 -68.03206 1228 ft 127 kts 342°
2026-05-08 00:04 46.65332 -68.03524 1054 ft 127 kts 342°
2026-05-08 00:04 46.66192 -68.03843 890 ft 127 kts 342°
2026-05-08 00:04 46.67041 -68.04157 723 ft 126 kts 341°
2026-05-08 00:05 46.67884 -68.04468 565 ft 125 kts 341°
2026-05-08 00:05 46.68698 -68.04773 481 ft 111 kts 346°
2026-05-08 00:05 46.69277 -68.04987 507 ft 61 kts 346°
2026-05-08 00:05 46.69533 -68.05080 517 ft 22 kts 346°
2026-05-08 00:06 46.69667 -68.05109 522 ft 16 kts 33°
2026-05-08 00:06 46.69675 -68.04973 525 ft 10 kts 96°
2026-05-08 00:06 46.69667 -68.04853 523 ft 14 kts 96°
2026-05-08 00:06 46.69629 -68.04757 520 ft 12 kts 162°
2026-05-08 00:07 46.69529 -68.04722 516 ft 13 kts 165°
2026-05-08 00:07 46.69522 -68.04719 516 ft 0 kts 165°